�������l�o���
Date,Time,MP-1(��Sv/h),MP-2(��Sv/h),MP-3(��Sv/h),MP-4(��Sv/h),MP-5(��Sv/h),MP-6(��Sv/h),MP-7(��Sv/h),MP-8(��Sv/h),����,����(m/s),���J
2016/11/21,00:00,1.101,1.860,1.249,2.094,1.456,0.579,1.050,0.968,�k��,7.1,��
2016/11/21,00:10,1.101,1.862,1.248,2.095,1.453,0.578,1.049,0.971,�k��,7.3,��
2016/11/21,00:20,1.100,1.862,1.249,2.094,1.454,0.578,1.051,0.969,�k��,7.1,��
2016/11/21,00:30,1.101,1.862,1.247,2.099,1.454,0.578,1.052,0.968,�k��,5.5,��
2016/11/21,00:40,1.099,1.862,1.250,2.094,1.451,0.577,1.051,0.971,�k��,5.4,��
2016/11/21,00:50,1.099,1.858,1.248,2.095,1.454,0.577,1.050,0.970,�k��,7.5,��
2016/11/21,01:00,1.100,1.861,1.250,2.094,1.452,0.579,1.051,0.970,�k��,6.6,��
2016/11/21,01:10,1.101,1.862,1.249,2.095,1.450,0.578,1.052,0.970,���k��,8.1,��
2016/11/21,01:20,1.101,1.860,1.250,2.094,1.451,0.579,1.050,0.971,�k��,7.5,��
2016/11/21,01:30,1.102,1.861,1.246,2.096,1.453,0.579,1.050,0.970,�k��,5.7,��
2016/11/21,01:40,1.101,1.860,1.249,2.094,1.451,0.576,1.051,0.971,�k��,6.5,��
2016/11/21,01:50,1.099,1.862,1.248,2.095,1.454,0.578,1.050,0.968,�k��,5.6,��
2016/11/21,02:00,1.098,1.859,1.248,2.095,1.453,0.577,1.050,0.968,�k�k��,4.7,��
2016/11/21,02:10,1.100,1.861,1.246,2.095,1.450,0.577,1.051,0.968,�k�k��,5.4,��
2016/11/21,02:20,1.099,1.861,1.247,2.093,1.454,0.576,1.050,0.969,�k�k��,8.0,��
2016/11/21,02:30,1.099,1.861,1.247,2.093,1.453,0.577,1.050,0.970,�k��,9.3,��
2016/11/21,02:40,1.099,1.861,1.246,2.095,1.454,0.575,1.052,0.969,�k�k��,6.8,��
2016/11/21,02:50,1.097,1.861,1.248,2.095,1.454,0.576,1.052,0.968,�k�k��,8.2,��
2016/11/21,03:00,1.100,1.860,1.248,2.097,1.454,0.577,1.051,0.971,�k�k��,11.3,��
2016/11/21,03:10,1.098,1.863,1.246,2.096,1.455,0.577,1.051,0.969,�k�k��,10.0,��
2016/11/21,03:20,1.097,1.861,1.249,2.097,1.456,0.574,1.052,0.971,�k��,8.2,��
2016/11/21,03:30,1.098,1.862,1.248,2.092,1.452,0.576,1.048,0.972,�k�k��,5.5,��
2016/11/21,03:40,1.098,1.857,1.248,2.095,1.453,0.577,1.049,0.969,�k�k��,4.7,��
2016/11/21,03:50,1.098,1.860,1.246,2.096,1.454,0.576,1.050,0.970,�k,4.7,��
2016/11/21,04:00,1.098,1.866,1.248,2.094,1.452,0.575,1.049,0.969,�k,4.7,��
2016/11/21,04:10,1.098,1.858,1.247,2.094,1.451,0.576,1.050,0.969,�k,5.9,��
2016/11/21,04:20,1.097,1.862,1.245,2.094,1.453,0.577,1.048,0.967,�k�k��,6.3,��
2016/11/21,04:30,1.099,1.862,1.248,2.095,1.452,0.575,1.050,0.968,�k�k��,5.8,��
2016/11/21,04:40,1.099,1.863,1.246,2.095,1.453,0.577,1.049,0.971,�k�k��,7.1,��
2016/11/21,04:50,1.099,1.860,1.249,2.095,1.453,0.575,1.051,0.968,�k,7.5,��
2016/11/21,05:00,1.097,1.861,1.246,2.095,1.454,0.575,1.052,0.968,�k,8.3,��
2016/11/21,05:10,1.099,1.863,1.245,2.095,1.449,0.576,1.049,0.969,�k,7.9,��
2016/11/21,05:20,1.096,1.862,1.244,2.092,1.450,0.576,1.050,0.968,�k,7.8,��
2016/11/21,05:30,1.096,1.862,1.243,2.096,1.451,0.574,1.050,0.968,�k,8.3,��
2016/11/21,05:40,1.096,1.860,1.247,2.096,1.452,0.575,1.048,0.971,�k,8.0,��
2016/11/21,05:50,1.097,1.860,1.245,2.094,1.453,0.576,1.048,0.967,�k,7.1,��
2016/11/21,06:00,1.097,1.857,1.245,2.096,1.453,0.574,1.049,0.968,�k,7.4,��
2016/11/21,06:10,1.095,1.858,1.244,2.093,1.455,0.575,1.048,0.969,�k,6.7,��
2016/11/21,06:20,1.096,1.861,1.241,2.096,1.452,0.574,1.050,0.967,�k�k��,6.2,��
2016/11/21,06:30,1.097,1.863,1.244,2.094,1.452,0.574,1.047,0.968,�k�k��,5.4,��
2016/11/21,06:40,1.095,1.859,1.247,2.094,1.450,0.575,1.049,0.969,�k�k��,6.0,��
2016/11/21,06:50,1.094,1.858,1.247,2.096,1.453,0.573,1.047,0.968,�k�k��,5.9,��
2016/11/21,07:00,1.095,1.860,1.246,2.094,1.453,0.573,1.049,0.969,�k�k��,4.7,��
2016/11/21,07:10,1.094,1.858,1.248,2.091,1.451,0.574,1.051,0.967,�k�k��,4.6,��
2016/11/21,07:20,1.093,1.862,1.246,2.093,1.454,0.574,1.049,0.969,�k�k��,4.3,��
2016/11/21,07:30,1.096,1.864,1.250,2.096,1.452,0.576,1.048,0.969,�k�k��,3.9,��
2016/11/21,07:40,1.095,1.861,1.247,2.095,1.453,0.575,1.047,0.969,�k�k��,4.1,��
2016/11/21,07:50,1.095,1.859,1.249,2.097,1.449,0.574,1.049,0.969,�k�k��,3.7,��
2016/11/21,08:00,1.095,1.861,1.245,2.095,1.454,0.576,1.051,0.970,�k�k��,3.6,��
2016/11/21,08:10,1.097,1.864,1.246,2.096,1.452,0.575,1.049,0.972,�k�k��,3.7,��
2016/11/21,08:20,1.096,1.864,1.243,2.096,1.453,0.573,1.051,0.969,�k�k��,3.4,��
2016/11/21,08:30,1.095,1.860,1.247,2.095,1.452,0.577,1.049,0.972,�k�k��,3.2,��
2016/11/21,08:40,1.096,1.859,1.245,2.099,1.456,0.575,1.049,0.970,�k,2.3,��
2016/11/21,08:50,1.095,1.862,1.246,2.097,1.453,0.574,1.051,0.970,�k,1.7,��
2016/11/21,09:00,1.095,1.864,1.247,2.096,1.454,0.574,1.050,0.970,�k,1.5,��
2016/11/21,09:10,1.096,1.864,1.247,2.096,1.452,0.574,1.048,0.969,�k�k��,1.7,��
2016/11/21,09:20,1.097,1.862,1.247,2.096,1.454,0.577,1.048,0.970,�k�k��,2.2,��
2016/11/21,09:30,1.096,1.863,1.248,2.096,1.436,0.574,1.047,0.970,�k,1.5,��
2016/11/21,09:40,1.097,1.866,1.248,2.097,1.419,0.575,1.047,0.971,�k,2.3,��
2016/11/21,09:50,1.098,1.862,1.247,2.097,1.455,0.576,1.047,0.972,�k�k��,2.0,��
2016/11/21,10:00,1.098,1.863,1.250,2.101,1.457,0.576,1.048,0.970,�k�k��,2.3,��
2016/11/21,10:10,1.098,1.863,1.248,2.098,1.455,0.576,1.048,0.972,�k��,1.7,��
2016/11/21,10:20,1.095,1.864,1.249,2.099,1.456,0.574,1.048,0.971,���k��,2.0,��
2016/11/21,10:30,1.090,1.863,1.250,2.101,1.453,0.577,1.049,0.970,�k��,2.2,��
2016/11/21,10:40,1.095,1.860,1.251,2.101,1.455,0.577,1.047,0.970,�k��,2.3,��
2016/11/21,10:50,1.098,1.866,1.250,2.101,1.454,0.577,1.049,0.969,�k��,2.5,��
2016/11/21,11:00,1.093,1.864,1.252,2.101,1.455,0.575,1.050,0.970,�k��,2.5,��
2016/11/21,11:10,1.096,1.864,1.252,2.100,1.455,0.576,1.048,0.968,���k��,2.8,��
2016/11/21,11:20,1.096,1.863,1.251,2.100,1.456,0.577,1.050,0.969,�k�k��,2.5,��
2016/11/21,11:30,1.095,1.863,1.253,2.098,1.458,0.577,1.047,0.969,�k��,2.2,��
2016/11/21,11:40,1.094,1.862,1.250,2.099,1.455,0.577,1.049,0.971,���k��,2.5,��
2016/11/21,11:50,1.095,1.863,1.249,2.100,1.457,0.575,1.048,0.972,�k��,2.5,��
2016/11/21,12:00,1.093,1.864,1.248,2.104,1.450,0.576,1.049,0.971,�k�k��,2.3,��
2016/11/21,12:10,1.093,1.864,1.250,2.101,1.446,0.577,1.048,0.971,�k��,2.8,��
2016/11/21,12:20,1.097,1.859,1.252,2.099,1.456,0.577,1.048,0.972,�k��,3.1,��
2016/11/21,12:30,1.094,1.862,1.252,2.101,1.456,0.576,1.047,0.970,�k��,3.3,��
2016/11/21,12:40,1.097,1.863,1.252,2.103,1.455,0.577,1.048,0.971,�k��,3.5,��
2016/11/21,12:50,1.097,1.859,1.251,2.101,1.458,0.577,1.048,0.972,�k�k��,3.7,��
2016/11/21,13:00,1.094,1.865,1.251,2.102,1.458,0.576,1.049,0.971,�k��,2.8,��
2016/11/21,13:10,1.096,1.864,1.253,2.104,1.456,0.577,1.049,0.972,���k��,2.6,��
2016/11/21,13:20,1.099,1.863,1.255,2.099,1.461,0.577,1.050,0.971,�k�k��,2.3,��
2016/11/21,13:30,1.098,1.870,1.254,2.105,1.460,0.578,1.049,0.971,�k�k��,2.3,��
2016/11/21,13:40,1.098,1.873,1.255,2.102,1.447,0.576,1.049,0.971,�k�k��,2.3,��
2016/11/21,13:50,1.097,1.874,1.252,2.102,1.458,0.577,1.050,0.973,�k�k��,3.7,��
2016/11/21,14:00,1.098,1.877,1.253,2.101,1.459,0.576,1.049,0.971,�k,3.6,��
2016/11/21,14:10,1.098,1.873,1.253,2.102,1.457,0.578,1.050,0.968,�k�k��,3.7,��
2016/11/21,14:20,1.098,1.871,1.249,2.102,1.459,0.577,1.049,0.969,�k,4.4,��
2016/11/21,14:30,1.097,1.873,1.251,2.101,1.457,0.577,1.051,0.970,�k,4.3,��
2016/11/21,14:40,1.097,1.869,1.247,2.103,1.451,0.577,1.050,0.971,�k,3.5,��
2016/11/21,14:50,1.100,1.873,1.250,2.101,1.462,0.575,1.050,0.969,�k�k��,3.6,��
2016/11/21,15:00,1.100,1.868,1.250,2.103,1.460,0.576,1.048,0.970,�k,3.8,��
2016/11/21,15:10,1.099,1.869,1.250,2.103,1.460,0.576,1.048,0.972,�k,2.9,��
2016/11/21,15:20,1.098,1.868,1.250,2.102,1.464,0.577,1.047,0.973,�k�k��,3.5,��
2016/11/21,15:30,1.100,1.871,1.252,2.103,1.460,0.576,1.050,0.971,�k�k��,3.7,��
2016/11/21,15:40,1.099,1.869,1.249,2.105,1.462,0.576,1.048,0.973,�k�k��,4.0,��
2016/11/21,15:50,1.098,1.868,1.251,2.105,1.463,0.576,1.048,0.971,�k�k��,3.7,��
2016/11/21,16:00,1.100,1.865,1.251,2.100,1.463,0.578,1.050,0.972,�k�k��,3.3,��
2016/11/21,16:10,1.100,1.869,1.251,2.105,1.461,0.577,1.049,0.972,�k�k��,3.1,��
2016/11/21,16:20,1.097,1.870,1.249,2.106,1.460,0.577,1.050,0.971,�k�k��,3.4,��
2016/11/21,16:30,1.100,1.869,1.251,2.104,1.465,0.577,1.048,0.973,�k�k��,3.5,��
2016/11/21,16:40,1.097,1.870,1.250,2.106,1.462,0.577,1.050,0.970,�k��,4.0,��
2016/11/21,16:50,1.097,1.873,1.252,2.104,1.462,0.577,1.050,0.972,�k��,3.4,��
2016/11/21,17:00,1.098,1.873,1.250,2.101,1.461,0.577,1.051,0.973,�k��,4.6,��
2016/11/21,17:10,1.099,1.871,1.249,2.105,1.460,0.577,1.050,0.973,�k��,4.6,��
2016/11/21,17:20,1.099,1.870,1.250,2.107,1.462,0.578,1.050,0.973,���k��,4.5,��
2016/11/21,17:30,1.099,1.871,1.250,2.104,1.464,0.577,1.052,0.972,�k��,4.5,��
2016/11/21,17:40,1.100,1.870,1.251,2.102,1.461,0.577,1.051,0.970,�k��,4.1,��
2016/11/21,17:50,1.098,1.874,1.250,2.102,1.462,0.576,1.052,0.972,�k��,4.3,��
2016/11/21,18:00,1.098,1.870,1.252,2.105,1.467,0.577,1.051,0.971,�k��,4.3,��
2016/11/21,18:10,1.100,1.870,1.249,2.103,1.461,0.577,1.052,0.971,�k��,3.7,��
2016/11/21,18:20,1.100,1.871,1.252,2.106,1.464,0.579,1.051,0.970,�k��,3.9,��
2016/11/21,18:30,1.099,1.869,1.250,2.103,1.466,0.579,1.050,0.970,�k��,3.8,��
2016/11/21,18:40,1.098,1.870,1.251,2.106,1.463,0.577,1.052,0.971,�k��,4.5,��
2016/11/21,18:50,1.100,1.868,1.251,2.104,1.463,0.576,1.050,0.969,�k��,4.4,��
2016/11/21,19:00,1.097,1.868,1.254,2.106,1.462,0.578,1.052,0.973,�k��,5.2,��
2016/11/21,19:10,1.099,1.874,1.251,2.106,1.463,0.578,1.052,0.970,�k��,4.9,��
2016/11/21,19:20,1.100,1.868,1.253,2.105,1.465,0.577,1.053,0.973,�k��,5.7,��
2016/11/21,19:30,1.099,1.871,1.252,2.106,1.461,0.576,1.053,0.971,�k��,5.7,��
2016/11/21,19:40,1.100,1.871,1.253,2.105,1.463,0.577,1.051,0.973,�k��,5.6,��
2016/11/21,19:50,1.098,1.873,1.251,2.107,1.460,0.577,1.050,0.972,�k��,5.9,��
2016/11/21,20:00,1.097,1.874,1.252,2.105,1.461,0.579,1.050,0.972,�k��,7.2,��
2016/11/21,20:10,1.101,1.872,1.251,2.104,1.465,0.579,1.052,0.973,�k��,7.0,��
2016/11/21,20:20,1.099,1.873,1.249,2.106,1.461,0.578,1.052,0.971,�k�k��,6.1,�L
2016/11/21,20:30,1.100,1.875,1.253,2.106,1.461,0.578,1.053,0.972,�k��,5.3,�L
2016/11/21,20:40,1.099,1.868,1.254,2.105,1.462,0.576,1.053,0.973,�k��,4.3,��
2016/11/21,20:50,1.100,1.872,1.251,2.105,1.464,0.577,1.054,0.971,���k��,3.5,��
2016/11/21,21:00,1.098,1.870,1.250,2.105,1.463,0.580,1.053,0.971,�k��,3.3,�L
2016/11/21,21:10,1.091,1.857,1.246,2.097,1.445,0.577,1.047,0.968,�k�k��,3.7,�L
2016/11/21,21:20,1.087,1.845,1.241,2.090,1.443,0.579,1.047,0.966,�k��,3.8,�L
2016/11/21,21:30,1.089,1.844,1.243,2.086,1.441,0.577,1.045,0.967,�k��,5.1,�L
2016/11/21,21:40,1.088,1.843,1.239,2.085,1.439,0.577,1.043,0.966,�k��,4.2,�L
2016/11/21,21:50,1.087,1.843,1.238,2.086,1.437,0.577,1.043,0.966,�k��,5.3,�L
2016/11/21,22:00,1.086,1.840,1.236,2.082,1.432,0.578,1.043,0.966,�k��,5.4,�L
2016/11/21,22:10,1.083,1.836,1.235,2.081,1.432,0.577,1.042,0.966,�k��,5.2,��
2016/11/21,22:20,1.084,1.836,1.235,2.080,1.430,0.576,1.039,0.963,�k��,6.4,�L
2016/11/21,22:30,1.078,1.828,1.232,2.073,1.421,0.576,1.036,0.963,�k��,6.6,�L
2016/11/21,22:40,1.076,1.813,1.225,2.061,1.413,0.574,1.036,0.961,�k�k��,6.7,�L
2016/11/21,22:50,1.070,1.805,1.221,2.046,1.409,0.574,1.034,0.960,�k��,6.7,�L
2016/11/21,23:00,1.066,1.796,1.218,2.043,1.407,0.572,1.033,0.958,�k��,6.8,�L
2016/11/21,23:10,1.068,1.799,1.222,2.039,1.410,0.574,1.033,0.959,�k�k��,7.1,�L
2016/11/21,23:20,1.071,1.807,1.221,2.047,1.413,0.577,1.035,0.959,�k�k��,7.8,��
2016/11/21,23:30,1.071,1.809,1.223,2.046,1.411,0.573,1.035,0.961,�k�k��,7.0,�L
2016/11/21,23:40,1.069,1.807,1.222,2.042,1.409,0.574,1.033,0.958,�k�k��,6.6,�L
2016/11/21,23:50,1.069,1.801,1.217,2.034,1.403,0.573,1.032,0.956,�k��,9.8,�L
